Regional Weather Roundup
Issued by NWS

Home | Current Version | Previous Version | Text Only | Print | Product List | Glossary Off
Versions: 1 2 3 4 5 6 7 8 9 10 11 12 13 14 15 16 17 18 19 20 21 22 23 24 25 26 27 28 29 30 31 32 33 34 35 36 37 38 39 40 41 42 43 44 45 46 47 48 49 50

000
ASUS43 KLOT 240012
RWRIL

ILLINOIS REGIONAL WEATHER ROUNDUP
NATIONAL WEATHER SERVICE CHICAGO/ROMEOVILLE IL
600 PM CST MON JAN 23 2017

NOTE: "FAIR" INDICATES FEW OR NO CLOUDS BELOW 12,000 FEET WITH NO
SIGNIFICANT WEATHER AND/OR OBSTRUCTIONS TO VISIBILITY.

* THESE STATIONS ARE NOT UNDER NWS QUALITY CONTROL. THEY ALSO MAY NOT
  REPORT WEATHER SUCH AS PRECIPITATION OR FOG.

ILZ001-002-007-009-015-016-024-240100-
NORTHWEST ILLINOIS

CITY           SKY/WX    TMP DP  RH WIND       PRES   REMARKS
MOLINE         CLOUDY    39  33  79 NW8       29.82S WCI  33
6HR MIN TEMP:  39; 6HR MAX TEMP:  41;

STERLING*      CLOUDY    38  35  89 NW8       29.83R WCI  32
SAVANNA*       CLOUDY    37  34  88 NW3       29.82S
$$

ILZ003-004-008-010-011-017-018-240100-
NORTH CENTRAL ILLINOIS

CITY           SKY/WX    TMP DP  RH WIND       PRES   REMARKS
ROCKFORD       CLOUDY    40  35  83 NW9       29.81R
6HR MIN TEMP:  40; 6HR MAX TEMP:  44;

FREEPORT*      CLOUDY    37  33  84 W6        29.82S WCI  32
ROCHELLE*      CLOUDY    38  36  89 NW7       29.80S WCI  33
DE KALB*       CLOUDY    38  36  91 N3        29.79S
PERU*          CLOUDY    38  34  85 NW7       29.81R WCI  33
$$

ILZ005-006-012>014-019>023-240100-
NORTHEAST ILLINOIS

CITY           SKY/WX    TMP DP  RH WIND       PRES   REMARKS
CHICAGO-OHARE  CLOUDY    41  35  79 NW9       29.77R
6HR MIN TEMP:  40; 6HR MAX TEMP:  42;

CHICAGO-MIDWAY CLOUDY    42  34  73 NW7       29.77R
6HR MIN TEMP:  41; 6HR MAX TEMP:  43;

AURORA         CLOUDY    39  36  89 NW5       29.78S
6HR MIN TEMP:  39; 6HR MAX TEMP:  42;

LANSING*       CLOUDY    40  37  88 CALM      29.76F
JOLIET*        CLOUDY    41  37  83 NW6       29.78S
WAUKEGAN       CLOUDY    40  35  83 NW6       29.77R
6HR MIN TEMP:  40; 6HR MAX TEMP:  43;

DUPAGE AIRPORT CLOUDY    40  33  76 NW9       29.77S
6HR MIN TEMP:  40; 6HR MAX TEMP:  42;

KANKAKEE*      CLOUDY    41  35  79 NW9       29.78R
WHEELING       CLOUDY    41  35  79 NW10      29.78R
6HR MIN TEMP:  40; 6HR MAX TEMP:  43;

MORRIS*        CLOUDY    39  36  87 CALM      29.78R
ROMEOVILLE*    CLOUDY    40  37  92 N6        29.78R
NORTHERLY ISL    N/A     38  34  85 MISG        N/A
$$

LMZ740>746-240100-
SOUTHERN LAKE MICHIGAN

STATION/POSITION SKY/WX   TEMP    WIND        PRES    VSBY  WAVE
                          AIR SEA DIR/SP/G                  HT/PER
                          (F)     (DEG/KT/KT) (MB)    (MI)  (FT/S)
HARRISON CRIB              38     350/ 11/ 11   N/A
BURNHAM HARBOR             37     360/  6/  9   N/A
CALUMET HARBOR             39     330/  6/  8 1007.6R
BURNS HARBOR               36     310/  4/  5 1008.8R
MICHIGAN CITY              36     310/ 10/ 11   N/A
$$

ILZ025>027-034>036-040-047-049-050-058-095>099-240100-
WEST-CENTRAL ILLINOIS

CITY           SKY/WX    TMP DP  RH WIND       PRES   REMARKS
QUINCY         CLOUDY    36  31  82 W9        29.85R WCI  29
GALESBURG*     CLOUDY    37  35  92 W6        29.83R WCI  32
MACOMB*        CLOUDY    37  34  89 W5        29.85S WCI  33
JACKSONVILLE*  CLOUDY    38  33  82 W6        29.84S WCI  34
PITTSFIELD*    CLOUDY    38  33  81 W3        29.85S
$$

ILZ028>032-037-038-041>044-048-051>054-059>061-240100-
CENTRAL ILLINOIS

CITY           SKY/WX    TMP DP  RH WIND       PRES   REMARKS
PONTIAC        CLOUDY    40  40  97 NW5       29.80R
BLOOMINGTON    CLOUDY    39  35  86 NW7       29.81R WCI  34
DECATUR        CLOUDY    41  37  86 NW14      29.81R
PEORIA         CLOUDY    40  36  86 NW7       29.83R
6HR MIN TEMP:  40; 6HR MAX TEMP:  43;

LACON*         CLOUDY    39  37  91 NW6       29.82R WCI  35
LINCOLN*       CLOUDY    42  37  81 NW6       29.83R
SPRINGFIELD    CLOUDY    41  34  76 NW9       29.85R
6HR MIN TEMP:  41; 6HR MAX TEMP:  44;

TAYLORVILLE    CLOUDY    40  34  81 NW9       29.83R
6HR MIN TEMP:  39; 6HR MAX TEMP:  42;

$$

ILZ033-039-045-046-055>057-062-063-240100-
EAST-CENTRAL ILLINOIS

CITY           SKY/WX    TMP DP  RH WIND       PRES   REMARKS
CHAMPAIGN      CLOUDY    39  34  82 N12       29.79R WCI  32
RANTOUL*       CLOUDY    41  37  86 NW8G16    29.78R
MATTOON        CLOUDY    39  36  89 N13       29.79R WCI  31
$$

ILZ079-100>102-240100-
SOUTHWEST ILLINOIS

CITY           SKY/WX    TMP DP  RH WIND       PRES   REMARKS
ALTON          CLOUDY    39  34  81 NW6       29.86R WCI  35
BELLEVILLE     CLOUDY    41  36  81 NW10      29.84R
CAHOKIA*       CLOUDY    42  33  70 N7        29.85S
SPARTA*        CLOUDY    40  33  75 NW9G17    29.86S
$$

ILZ064>066-069>071-074>076-080>082-084>086-088>090-092>094-240100-
SOUTH-CENTRAL ILLINOIS

CITY           SKY/WX    TMP DP  RH WIND       PRES   REMARKS
CARBONDALE     CLOUDY    42  36  79 NW9       29.85R
6HR MIN TEMP:  42; 6HR MAX TEMP:  43;

CAIRO*         CLOUDY    43  37  78 NW9       29.85R
EFFINGHAM*     CLOUDY    42  38  85 W12       29.83R
MARION         CLOUDY    43  36  75 N12       29.85R
MT. VERNON     CLOUDY    42  35  76 VRB7      29.84R
CENTRALIA*     CLOUDY    42  37  81 NW12G17   29.83R
SALEM*         CLOUDY    42  35  75 NW10      29.83R
METROPOLIS*    CLOUDY    43  36  75 CALM      29.84R
$$

ILZ067-068-072-073-078-083-087-091-240100-
SOUTHEAST ILLINOIS

CITY           SKY/WX    TMP DP  RH WIND       PRES   REMARKS
LAWRENCEVILLE  CLOUDY    41  37  86 NW16      29.79R
FLORA*         CLOUDY    43  37  79 NW8       29.81S
FAIRFIELD*     CLOUDY    42  36  80 NW3       29.81R
HARRISBURG*    CLOUDY    42  36  79 NW10G16   29.84R
ROBINSON*      CLOUDY    40  36  86 NW13G20   29.79R
CARMI*         CLOUDY    41  37  83 NW16G22   29.81R
$$

ABBREVIATIONS USED IN REMARKS
   TC - TEMPERATURE IN CELSIUS
  WCI - WIND CHILL INDEX
   HX - HEAT INDEX
  VSB - VISIBILITY
$$




USA.gov is the U.S. government's official web portal to all federal, state and local government web resources and services.